Regional Weather Roundup
Issued by NWS

Home | Current Version | Previous Version | Graphics & Text | Print | Product List | Glossary On
Versions: 1 2 3 4 5 6 7 8 9 10 11 12 13 14 15 16 17 18 19 20 21 22 23 24 25 26 27 28 29 30 31 32 33 34 35 36 37 38 39 40 41 42 43 44 45 46 47 48 49 50
000
ASUS43 KMKX 251921
RWRWI

WISCONSIN REGIONAL WEATHER ROUNDUP
NATIONAL WEATHER SERVICE MILWAUKEE/SULLIVAN WI
200 PM CDT SAT APR 25 2015

NOTE: "FAIR" INDICATES FEW OR NO CLOUDS BELOW 12,000 FEET WITH NO
SIGNIFICANT WEATHER AND/OR OBSTRUCTIONS TO VISIBILITY.

WIZ001-002-006>008-014>016-023>028-252000-
NORTHWEST WISCONSIN

CITY           SKY/WX    TMP DP  RH WIND       PRES   REMARKS
SUPERIOR ARPT  SUNNY     39  31  73 E20G28    29.99S WCI  29
ASHLAND        SUNNY     45  29  53 NE20G28   29.99S
HAYWARD        SUNNY     56  26  31 NE12G17   29.88F
SIREN          MOSUNNY   58  20  22 NE8G20    29.87F
CUMBERLAND     SUNNY     55  21  26 E6G16     29.86F
RICE LAKE      SUNNY     58  16  19 E14       29.87F
CHETEK         SUNNY     57  19  23 NE9G17    29.86F
LADYSMITH      SUNNY     58  20  22 NE7G18    29.88S
EAU CLAIRE     MOSUNNY   56  17  21 E13G26    29.84F
MENOMONIE      MOSUNNY   58  20  22 NE13G23   29.85F
NEW RICHMOND   SUNNY     57  22  25 E13G23    29.85S
OSCEOLA        SUNNY     58  25  28 E9G17     29.88S
$$

WIZ003>005-009-010-017-018-252000-
NORTH CENTRAL WISCONSIN

CITY           SKY/WX    TMP DP  RH WIND       PRES   REMARKS
MANITOWISH WTR SUNNY     54  20  26 E7G18     29.89F
ARBOR VITAE    SUNNY     55  18  22 NE6       29.88F
WOODRUFF       SUNNY     55  18  22 NE6       29.88F
RHINELANDER    PTSUNNY   52  20  28 NE12G20   29.88F
EAGLE RIVER    SUNNY     53  12  19 E10       29.88F
LAND O LAKES   SUNNY     54  13  20 E9G18     29.90F
PHILLIPS       SUNNY     54  21  27 NE6G22    29.86F
TOMAHAWK       PTSUNNY   56  19  23 E7        29.88F
MEDFORD        SUNNY     54  22  28 NE18      29.85F
MERRILL        CLOUDY    55  21  26 E12G23    29.86F
$$

WIZ029-030-035-036-043>047-252000-
CENTRAL WISCONSIN

CITY           SKY/WX    TMP DP  RH WIND       PRES   REMARKS
WAUSAU         MOSUNNY   56  19  23 NE7G21    29.84F
MOSINEE        MOSUNNY   54  19  26 NE14G23   29.87F
MARSHFIELD     SUNNY     55  20  25 E13G22    29.84F
STEVENS POINT  MOSUNNY   50  19  29 E15G26    29.86F
WAUPACA        MOSUNNY   54  13  19 NE16G24   29.87F
WAUTOMA        SUNNY     55  14  19 E14       29.85S
WISC RAPIDS    SUNNY     56  13  18 E18G25    29.85F
CAMP DOUGLAS   PTSUNNY   55  28  35 E15G21    29.81F
$$

WIZ011>013-019>022-031-037>040-048>050-252000-
NORTHEAST WISCONSIN

CITY           SKY/WX    TMP DP  RH WIND       PRES   REMARKS
ANTIGO         CLOUDY    52  18  26 E9G16     29.87F
SHAWANO        PTSUNNY   55  22  27 E13       29.89S
OCONTO         PTSUNNY   46  18  33 E9G21     29.91F
STURGEON BAY   PTSUNNY   45  23  42 N13       29.93S
GREEN BAY      MOSUNNY   47  20  34 NE20      29.90F
MANITOWOC      MOSUNNY   46  26  45 NE16G25   29.88F
APPLETON       MOSUNNY   50  16  25 NE20G30   29.87F
CLINTONVILLE   CLOUDY    52  18  25 E14       29.88F
OSHKOSH        SUNNY     52  21  29 NE20G25   29.85F
$$

WIZ032>034-041-042-053>061-252000-
SOUTHWEST WISCONSIN

CITY           SKY/WX    TMP DP  RH WIND       PRES   REMARKS
LA CROSSE      CLOUDY    56  36  47 NE9       29.81F
SPARTA         CLOUDY    53  29  39 E10G24    29.83F
VIROQUA        CLOUDY    50  37  59 E17G24    29.80R
BOSCOBEL       CLOUDY    51  36  56 E12G21    29.80S
PRAIRIE DU CHI CLOUDY    51  36  57 NE13G21   29.77F
PLATTEVILLE    CLOUDY    48  40  74 E20G30    29.75F
$$

WIZ056-057-062-063-064-067-068-252000-
SOUTH CENTRAL WISCONSIN

CITY           SKY/WX    TMP DP  RH WIND       PRES   REMARKS
REEDSBURG      CLOUDY    50  32  50 E13G21    29.81S
BARABOO/DELLS  CLOUDY    50  31  48 E12       29.82S
LONE ROCK      CLOUDY    50  36  58 E18G28    29.81R
MINERAL POINT  CLOUDY    50  36  57 E13G25    29.77S
MADISON        CLOUDY    49  36  61 E17       29.81S
MIDDLETON      CLOUDY    50  37  60 E13G20    29.81S
WATERTOWN      CLOUDY    48  37  65 E16       29.82S
MONROE         CLOUDY    46  37  71 NE14G25   29.77S
JANESVILLE     CLOUDY    48  36  61 E17       29.79S
$$

WIZ051-052-058>065-066-070>072-252000-
SOUTHEAST WISCONSIN

CITY           SKY/WX    TMP DP  RH WIND       PRES   REMARKS
MILWAUKEE      CLOUDY    40  30  67 NE16      29.86R WCI  31
WAUKESHA       CLOUDY    41  32  70 NE13      29.84S
MILWAUKEE/TIMM CLOUDY    43  27  52 NE14      29.85S
RACINE         CLOUDY    41  33  73 NE10      29.86R
BURLINGTON     DRIZZLE   40  35  82 E13       29.82F WCI  33
KENOSHA        CLOUDY    43  37  79 NE13      29.83S
FOND DU LAC    MOSUNNY   53  23  31 NE16G25   29.85F
SHEBOYGAN      CLOUDY    46  25  43 NE22G29   29.87S
WEST BEND      CLOUDY    45  28  53 NE15G21   29.85R
JUNEAU         CLOUDY    48  31  52 NE14      29.84S
$$

LSZ147-162-252000-
LAKE SUPERIOR

STATION/POSITION TIME  TEMP    WIND        PRES    WAVE
                       AIR SEA DIR/SP/G            HT/PER
                 (UTC) (F)     (DEG/KT/KT) (MB)    (FT/S)
W MID LAKE BUOY  1850   34 35   40/ 14/ 17 1018.0F   3/ 5
DEVILS ISLAND    1900   35      40/ 19/ 22 1017.5S
PORT WING        1908   37      30/ 26     1015.6F
SAXON HARBOR     1800   37      20/  9/ 10 1015.6S
$$

LMZ867-665-643>646-252000-
LAKE MICHIGAN

STATION/POSITION TIME  TEMP    WIND        PRES    WAVE
                       AIR SEA DIR/SP/G            HT/PER
                 (UTC) (F)     (DEG/KT/KT) (MB)    (FT/S)
CHAMBERS ISLAND  1800   37      10/ 13/ 16 1014.6F
NORTHPORT PIER   1800   37      70/ 11/ 12 1014.6F
SISTER BAY       1847   49     100/  8/ 15   N/A
KEWAUNEE LAKESHO 1800   38      30/ 17/ 21 1012.3F
SHEBOYGAN LAKESH 1900   38      10/ 20/ 24 1012.5S
PORT WASHINGTON  1800   42      40/ 18/ 21 1011.9
MILWAUKEE LAKESH 1900   39      20/ 17/ 20   N/A
KENOSHA   LAKESH 1900   40      40/ 13/ 15 1010.5S
$$

TC  - TEMPERATURE IN CELSIUS
VSB - VISIBILITY IN STATUTE MILES
WCI - WIND CHILL INDEX
HX  - HEAT INDEX



USA.gov is the U.S. government's official web portal to all federal, state and local government web resources and services.